Wetbulb
44.45 39.11 36.41 40.23 41.74 42.22 39.43 37.72 37.05 40.54 44.05 41.35 40.85 40.96 42.37 44.72 44.81 44.77 44.84 44.04 44.28 44.32 45.18 45.20 45.12 45.04 44.72 45.05 45.68 46.26 46.68 47.62 48.51 49.26 49.35 50.57 51.13 52.82 53.27 53.99 54.20 53.96 53.17 52.15
40.12 36.59 42.94 44.45 43.15 41.12 39.64 36.86 36.33 40.50 43.39 40.38 39.12 38.74 42.34 44.02 43.93 43.74 42.87 43.62 43.47 42.93 42.68 42.75 41.96 41.96 42.30 42.60 43.32 44.50 45.51 45.85 46.28 47.00 48.52 48.87 49.46 50.06 51.55 52.36 52.46 52.71 51.77 50.57
38.91 42.55 45.63 43.44 41.02 39.68 39.26 37.34 37.33 36.22 39.07 39.76 36.94 35.04 38.64 43.18 43.43 43.62 43.25 42.45 41.99 40.69 39.81 39.84 39.64 39.48 40.12 40.52 41.21 42.30 43.27 44.05 44.75 45.01 46.06 45.96 46.41 45.71 44.43 46.76 48.27 49.87 50.71 49.43
41.70 42.34 41.23 39.37 38.82 39.88 35.38 40.74 38.49 37.58 33.33 28.90 36.34 25.93 35.31 41.39 39.18 40.60 40.12 39.09 38.63 38.76 39.06 39.08 38.61 38.09 38.46 38.97 40.16 40.62 41.54 42.11 43.70 43.89 43.53 42.73 42.20 41.72 42.70 44.00 46.03 47.60 48.61 48.06
39.15 38.39 38.01 37.51 39.21 40.52 37.66 38.79 37.01 36.06 32.79 30.74 32.67 28.56 34.23 40.07 36.44 37.26 37.77 38.13 37.69 37.77 37.64 37.33 37.57 38.56 38.65 38.79 38.18 38.25 39.12 39.88 40.53 41.09 41.39 41.22 41.00 41.62 41.70 42.01 42.10 43.22 44.64 45.93
39.85 40.99 39.69 41.05 42.08 40.06 40.54 36.34 36.38 35.24 32.91 25.73 33.19 32.50 33.04 34.79 36.82 35.89 37.25 37.77 37.97 37.59 37.38 37.82 38.53 38.71 37.65 37.20 36.89 36.78 36.88 37.58 38.80 38.91 39.43 38.82 37.84 38.52 38.67 39.53 39.63 40.26 41.47 42.18
38.46 38.53 40.73 42.38 37.77 38.66 36.29 32.87 27.31 26.07 24.11 25.49 35.07 31.55 34.94 37.45 38.57 38.24 36.83 36.92 37.13 37.36 36.14 36.53 36.05 35.78 36.56 36.19 36.38 36.98 35.85 35.39 36.29 36.75 37.12 37.22 37.18 36.87 37.29 37.37 37.58 37.74 38.65 39.37
33.97 31.25 37.91 38.74 37.72 34.99 34.66 34.77 28.58 20.97 22.99 25.55 32.68 27.21 35.26 38.45 38.98 38.97 38.29 37.10 37.06 36.06 36.29 35.08 34.97 35.18 35.29 35.99 34.91 35.55 35.27 34.67 34.93 34.84 35.01 35.68 36.26 36.23 36.37 36.26 36.76 37.29 37.80 38.23
33.50 33.62 37.41 38.20 37.52 37.36 34.23 32.02 35.73 31.43 31.16 28.53 29.75 34.07 36.03 37.35 36.70 36.95 36.20 35.01 33.63 34.10 34.73 34.80 34.54 34.21 34.34 34.09 34.64 35.17 34.39 34.26 33.77 34.49 34.30 33.91 34.28 34.33 34.17 34.60 35.01 35.42 35.91 37.77
38.04 32.21 39.02 37.27 36.44 36.03 34.49 36.00 30.28 31.02 22.20 14.94 25.39 26.47 30.96 34.01 34.99 36.05 34.28 32.80 33.76 33.96 33.76 33.89 33.32 33.22 33.47 33.24 33.06 33.25 33.02 32.11 32.61 33.51 33.76 33.46 33.08 33.38 33.02 32.51 31.69 31.62 32.92 34.35
39.90 35.94 34.06 36.73 34.22 34.66 32.58 31.48 31.97 31.84 29.06 22.75 21.60 25.53 34.89 34.53 35.63 32.93 32.03 33.08 33.52 33.22 32.75 33.25 33.90 34.21 33.33 31.99 31.31 31.99 31.80 30.67 30.60 31.58 31.91 31.62 32.41 32.61 32.53 31.56 31.01 30.16 30.34 31.08
39.84 36.17 28.88 31.99 37.36 38.45 35.96 34.01 34.21 28.67 26.18 27.15 28.11 27.68 34.74 33.47 33.07 33.35 33.24 33.87 32.88 32.94 30.70 30.76 31.58 32.61 32.02 30.63 30.67 31.14 31.44 30.23 30.22 31.47 30.42 30.11 30.59 30.71 30.55 30.76 30.29 29.11 29.22 29.85
38.24 31.45 24.75 25.06 30.42 35.40 32.97 33.82 34.71 33.90 31.85 27.29 25.22 26.78 36.98 33.55 32.83 33.55 34.43 33.41 31.69 31.66 29.94 30.46 31.28 30.25 30.33 30.29 30.56 30.59 30.09 30.01 30.52 29.72 28.92 28.38 28.21 27.55 28.09 29.05 29.58 28.81 28.17 27.59
40.09 33.71 26.47 20.36 25.61 30.97 25.49 28.84 30.89 28.51 26.23 24.61 25.34 26.86 32.02 34.05 33.06 32.76 34.02 34.28 29.79 30.34 30.01 29.53 29.50 29.72 29.80 30.49 29.64 28.79 28.64 29.06 29.02 28.24 27.54 26.09 25.97 26.49 27.02 27.66 27.69 27.03 25.97 25.27
36.13 26.68 28.12 30.10 30.51 28.77 26.41 26.42 28.36 26.46 27.07 21.71 24.54 24.93 29.83 32.36 30.07 27.46 27.28 27.68 27.87 28.57 29.46 28.24 27.56 29.05 29.04 28.03 27.87 28.37 28.24 28.34 28.13 27.33 26.12 25.54 25.77 26.28 25.74 25.79 25.99 26.27 25.40 24.72
32.26 18.25 23.08 15.61 25.90 26.80 24.32 26.28 26.70 26.69 27.02 26.60 26.88 25.95 32.98 28.37 28.59 27.63 28.08 28.06 26.88 27.14 27.84 28.70 28.75 28.60 28.31 28.72 28.02 28.62 27.87 27.41 26.84 25.06 25.02 25.74 25.76 26.30 26.09 25.88 25.42 25.39 25.35 24.12
26.26 20.96 12.27 8.31 22.28 20.05 11.92 21.35 24.46 25.77 27.60 26.54 21.34 25.41 23.11 23.33 25.09 25.64 25.73 26.56 26.84 27.58 27.45 27.67 27.95 28.14 28.12 27.63 28.71 27.38 27.75 27.20 25.96 25.96 25.34 25.32 25.34 24.39 24.91 25.53 24.87 24.26 23.54 23.35
24.59 19.77 17.10 8.61 11.03 1.09 20.51 26.13 24.02 22.07 23.90 22.13 20.85 19.47 20.83 22.34 24.19 24.92 26.69 26.26 26.34 27.02 27.83 27.81 27.67 27.70 27.54 27.31 26.49 26.17 25.57 24.77 24.74 23.58 23.31 24.48 24.34 23.30 24.30 24.04 23.77 23.44 23.09 22.17
27.98 23.58 13.47 7.31 5.60 15.86 21.24 22.49 19.44 17.43 17.87 22.00 20.61 23.61 24.17 23.71 23.43 22.91 27.59 27.29 26.23 26.86 27.71 28.02 27.70 27.61 26.09 24.96 24.19 23.66 23.29 23.45 22.95 22.76 22.70 22.82 22.23 21.02 21.83 20.95 21.43 21.98 21.36 20.78
23.10 23.93 17.74 4.03 3.37 -1.83 15.74 19.89 24.58 22.61 9.64 17.41 17.88 17.45 19.47 21.77 12.67 18.26 26.12 27.42 27.54 28.48 28.25 27.29 25.90 25.40 23.81 23.23 23.14 21.70 20.71 20.13 19.63 20.54 20.66 20.21 19.15 17.42 16.82 17.27 16.91 17.77 17.72 18.15
8.67 8.20 12.01 13.72 11.55 12.12 21.58 22.74 24.43 7.59 13.20 21.97 21.04 21.96 21.95 19.31 20.94 25.15 27.30 27.25 28.07 27.09 25.05 23.99 22.82 22.38 21.94 21.56 20.01 18.26 17.76 16.43 17.83 16.65 15.81 14.93 13.98 11.78 11.31 11.12 11.61 11.37 11.27 12.34
11.90 7.46 5.75 4.79 1.29 4.52 21.96 20.90 15.81 21.31 25.73 25.09 24.62 24.25 22.82 24.38 25.38 25.64 26.11 25.55 24.63 23.31 22.39 22.17 19.33 19.56 19.25 18.61 16.36 14.41 13.18 15.24 13.78 12.46 10.84 8.59 7.14 6.91 7.73 5.77 6.23 6.42 6.24 5.80
9.49 15.81 9.59 13.39 11.62 22.93 23.12 23.64 26.35 27.07 24.49 25.48 24.96 25.74 25.93 24.61 24.21 24.70 24.29 23.08 22.45 20.16 20.88 19.09 14.92 15.53 15.71 15.15 13.11 10.38 11.56 11.37 9.87 6.30 4.07 3.59 4.21 4.56 4.66 3.16 3.13 3.06 3.72 3.25
20.24 22.59 15.52 16.64 21.00 22.99 25.60 26.99 27.39 26.92 26.27 26.62 26.40 25.57 24.80 24.20 24.89 24.21 22.49 22.34 20.73 18.84 17.48 15.54 12.61 11.61 10.88 9.73 11.14 6.77 8.90 8.48 4.23 1.89 2.29 3.19 2.63 2.32 2.94 4.07 4.16 3.00 2.60 2.45
20.50 20.54 17.94 18.31 22.41 24.26 25.71 26.79 27.61 27.79 28.22 27.58 27.59 26.17 26.04 24.35 22.51 22.23 20.27 17.51 17.75 16.58 14.98 12.77 10.40 9.97 8.45 8.55 6.93 3.81 5.90 3.28 1.82 1.88 2.46 2.18 2.16 1.46 1.72 2.93 2.91 3.80 5.64 6.51
24.27 21.66 18.53 16.99 24.35 23.71 24.72 27.19 26.93 25.73 25.49 25.35 24.57 23.18 22.05 22.26 20.51 18.49 16.17 15.64 13.70 11.85 10.42 8.85 8.17 6.44 4.87 4.16 3.61 3.16 0.48 -0.10 0.67 1.37 1.34 1.02 1.09 1.07 1.60 1.30 1.69 8.84 11.69 13.56
MSLP
1014.20 1014.43 1014.09 1013.83 1013.72 1013.54 1013.48 1013.51 1013.13 1012.65 1012.12 1011.87 1011.66 1010.99 1010.66 1010.03 1009.59 1009.42 1009.67 1009.77 1010.90 1011.96 1012.99 1013.43 1013.78 1014.08 1013.62 1013.13 1012.53 1012.48 1012.55 1012.22 1012.30 1013.06 1013.39 1013.61 1013.85 1014.06 1014.41 1014.66 1014.82 1015.24 1015.72 1016.24
1014.65 1014.27 1013.54 1013.49 1013.50 1013.69 1013.66 1013.68 1013.46 1012.78 1012.26 1012.50 1012.02 1011.60 1010.75 1009.30 1009.33 1009.78 1010.17 1010.97 1012.17 1013.12 1014.18 1015.12 1015.47 1015.32 1015.49 1015.22 1014.53 1013.86 1013.59 1013.72 1013.42 1013.55 1013.88 1013.94 1014.10 1014.13 1014.23 1014.49 1014.83 1015.16 1015.60 1016.08
1013.70 1013.32 1013.17 1013.59 1013.78 1013.72 1013.66 1013.49 1013.37 1013.45 1013.25 1012.94 1012.49 1011.52 1010.42 1009.40 1009.82 1010.70 1011.75 1013.15 1013.90 1015.00 1016.01 1016.70 1016.96 1016.66 1015.86 1016.39 1016.35 1015.87 1015.25 1014.63 1014.55 1014.54 1014.54 1014.58 1014.56 1014.81 1015.00 1015.17 1015.20 1015.33 1015.49 1015.96
1013.29 1013.51 1013.54 1013.52 1013.51 1013.64 1013.78 1013.53 1013.78 1014.04 1014.04 1013.77 1013.36 1012.23 1011.18 1010.23 1011.78 1012.42 1013.67 1014.46 1015.62 1016.26 1016.96 1017.71 1018.00 1017.88 1017.55 1016.88 1016.96 1017.07 1016.61 1016.23 1016.04 1015.69 1015.58 1015.75 1015.90 1016.12 1016.07 1015.93 1015.52 1015.63 1015.71 1016.02
1013.28 1013.44 1013.48 1013.40 1013.16 1013.23 1013.38 1013.43 1013.92 1014.27 1014.72 1014.60 1013.91 1013.42 1011.01 1010.63 1012.51 1013.81 1015.03 1016.03 1016.72 1017.35 1017.78 1017.97 1018.48 1018.41 1018.48 1018.07 1017.92 1017.67 1017.46 1017.12 1017.18 1016.95 1016.90 1017.10 1017.00 1016.84 1016.42 1016.27 1016.13 1016.15 1016.41 1016.57
1013.41 1013.69 1013.50 1012.90 1012.83 1013.24 1013.61 1014.17 1014.34 1014.51 1014.99 1014.99 1013.84 1013.26 1011.87 1011.59 1012.73 1014.40 1015.64 1016.73 1017.58 1018.07 1018.42 1018.60 1018.86 1019.06 1019.12 1019.04 1018.82 1018.86 1018.70 1018.47 1018.23 1018.09 1018.12 1017.69 1017.93 1018.38 1017.71 1017.16 1017.02 1016.81 1016.52 1016.71
1013.30 1013.25 1013.01 1012.95 1013.20 1013.44 1014.20 1015.12 1015.17 1015.44 1015.50 1014.90 1013.83 1013.49 1012.06 1012.01 1012.31 1013.54 1015.50 1017.00 1017.99 1018.67 1019.29 1019.74 1019.80 1019.65 1019.69 1019.78 1019.87 1019.77 1019.76 1019.53 1019.27 1018.92 1018.39 1018.39 1018.61 1019.00 1018.76 1018.10 1018.01 1017.88 1017.64 1017.22
1013.59 1013.12 1013.12 1013.58 1013.58 1013.90 1014.43 1014.86 1015.63 1016.45 1016.52 1015.72 1014.47 1013.51 1012.16 1012.09 1013.27 1014.48 1016.07 1017.47 1018.28 1019.01 1019.54 1019.94 1020.42 1020.56 1020.43 1020.45 1020.38 1020.47 1020.46 1020.34 1020.02 1019.96 1019.76 1019.66 1019.52 1019.22 1019.39 1018.98 1018.38 1018.39 1018.47 1018.03
1013.50 1013.40 1013.36 1013.56 1013.98 1014.42 1014.68 1015.06 1015.68 1016.52 1017.61 1017.28 1015.54 1013.80 1013.28 1013.84 1015.01 1015.94 1017.12 1018.04 1018.95 1019.46 1019.78 1020.13 1020.43 1020.72 1021.14 1021.07 1021.15 1020.99 1020.75 1020.85 1020.79 1021.08 1020.64 1020.24 1020.05 1019.51 1019.68 1019.08 1018.97 1018.78 1018.81 1018.67
1014.58 1014.92 1014.45 1014.60 1014.72 1014.90 1015.23 1015.68 1016.16 1017.22 1017.81 1017.03 1015.28 1014.69 1014.26 1014.99 1015.69 1016.90 1018.12 1018.84 1019.31 1019.67 1020.15 1020.42 1020.62 1021.18 1021.65 1021.69 1021.70 1021.65 1021.46 1021.59 1021.64 1021.69 1021.37 1021.19 1020.57 1019.65 1019.44 1019.28 1019.28 1019.01 1019.08 1019.10
1015.32 1016.06 1015.72 1015.48 1015.27 1015.32 1016.14 1016.24 1016.65 1017.31 1017.64 1017.08 1016.41 1015.36 1015.15 1015.80 1016.35 1017.58 1018.63 1019.31 1019.74 1019.88 1019.95 1019.89 1020.03 1020.48 1021.22 1021.53 1021.92 1022.14 1022.00 1022.28 1021.58 1021.94 1021.95 1021.53 1020.69 1019.92 1019.35 1019.56 1019.67 1019.42 1019.15 1019.38
1015.99 1016.73 1016.89 1016.23 1015.75 1015.71 1016.06 1016.48 1017.01 1017.77 1017.64 1017.25 1016.76 1015.65 1015.83 1016.50 1017.39 1017.98 1018.85 1019.24 1019.59 1019.73 1019.90 1020.22 1020.60 1020.83 1021.31 1022.10 1022.37 1022.20 1022.28 1022.38 1022.19 1022.17 1021.62 1021.12 1020.58 1020.97 1020.48 1020.47 1020.40 1020.39 1019.72 1019.89
1017.12 1017.81 1018.27 1017.54 1016.81 1017.12 1017.52 1017.84 1018.12 1018.67 1018.85 1018.12 1017.68 1016.12 1016.00 1016.78 1017.38 1017.87 1018.26 1018.80 1019.29 1019.96 1019.73 1019.94 1020.20 1021.09 1021.57 1021.91 1021.81 1021.92 1022.05 1022.02 1021.90 1021.62 1021.10 1021.01 1020.67 1020.54 1020.84 1020.66 1020.31 1020.09 1019.70 1018.69
1018.09 1018.92 1019.44 1019.34 1018.31 1018.44 1018.98 1018.64 1018.63 1019.39 1019.44 1018.46 1017.79 1016.98 1016.11 1016.41 1017.19 1017.44 1017.99 1018.37 1019.13 1019.56 1019.38 1019.87 1020.60 1021.04 1021.39 1021.45 1021.32 1021.23 1021.28 1021.22 1021.23 1020.87 1020.85 1020.82 1020.55 1020.33 1020.09 1019.90 1019.27 1018.81 1018.57 1018.44
1019.45 1020.31 1020.89 1020.58 1020.43 1020.04 1020.05 1019.58 1018.69 1019.35 1019.11 1019.28 1017.78 1017.78 1016.72 1016.92 1017.27 1017.82 1018.27 1018.69 1019.01 1019.08 1019.34 1019.89 1020.51 1020.89 1021.20 1021.43 1021.30 1021.04 1021.32 1021.20 1020.96 1020.93 1020.89 1020.71 1020.34 1020.00 1019.65 1019.42 1018.89 1018.50 1018.29 1018.14
1020.75 1021.42 1021.94 1022.06 1021.99 1021.37 1020.65 1019.11 1019.07 1018.95 1018.75 1018.47 1018.38 1017.67 1017.47 1017.69 1017.72 1017.88 1018.25 1018.55 1018.91 1019.10 1019.34 1019.76 1020.17 1020.47 1020.73 1021.02 1021.19 1021.24 1021.27 1021.17 1021.02 1020.93 1020.74 1020.48 1020.21 1019.91 1019.64 1019.21 1018.83 1018.48 1018.17 1017.91
1021.55 1022.54 1023.65 1023.50 1022.82 1022.32 1021.23 1018.64 1018.57 1018.36 1018.32 1018.36 1018.54 1018.32 1018.68 1018.39 1018.41 1018.55 1018.77 1018.97 1019.18 1019.41 1019.57 1019.86 1020.07 1020.01 1020.18 1020.59 1020.83 1021.12 1021.21 1021.16 1021.37 1021.36 1021.12 1020.69 1020.26 1019.89 1019.50 1019.12 1018.70 1018.23 1017.87 1017.52
1021.66 1022.96 1024.21 1024.39 1024.51 1022.92 1018.98 1018.06 1018.17 1018.36 1018.34 1018.58 1019.04 1019.24 1019.25 1019.16 1018.99 1018.92 1018.91 1018.99 1019.17 1019.39 1019.48 1019.64 1019.77 1019.97 1020.23 1020.51 1020.80 1021.10 1021.33 1021.48 1021.56 1021.38 1021.03 1020.61 1020.26 1019.86 1019.17 1018.65 1018.11 1017.57 1017.35 1016.92
1021.67 1022.97 1024.21 1024.82 1024.18 1021.46 1019.55 1018.48 1018.43 1018.77 1018.85 1019.23 1019.46 1019.61 1019.68 1019.65 1019.51 1019.17 1018.89 1019.11 1019.21 1019.23 1019.32 1019.43 1019.61 1020.07 1020.47 1020.85 1021.28 1021.49 1021.67 1021.80 1021.60 1021.31 1020.94 1020.56 1020.17 1019.79 1019.30 1018.74 1018.14 1017.47 1017.07 1016.37
1022.01 1022.66 1024.13 1024.49 1023.94 1021.97 1019.59 1019.02 1018.89 1019.41 1019.54 1019.37 1019.43 1019.93 1020.05 1020.11 1020.17 1019.39 1019.09 1019.06 1019.12 1019.12 1019.25 1019.59 1019.96 1020.43 1020.97 1021.34 1021.57 1021.79 1021.91 1021.82 1021.61 1021.36 1021.06 1020.75 1020.50 1020.17 1019.70 1019.13 1018.41 1017.75 1017.24 1016.19
1023.09 1023.48 1023.57 1023.40 1022.89 1021.09 1019.44 1019.30 1019.17 1019.85 1019.57 1019.33 1019.61 1019.76 1020.00 1020.18 1019.72 1019.08 1018.77 1018.78 1018.75 1019.06 1019.60 1020.07 1020.53 1021.12 1021.50 1021.76 1021.96 1022.12 1022.15 1022.13 1021.85 1021.66 1021.39 1021.06 1020.84 1020.60 1020.22 1019.45 1018.79 1018.05 1017.26 1016.34
1022.00 1022.97 1022.93 1022.41 1022.11 1020.95 1019.50 1019.65 1019.58 1018.77 1018.67 1019.06 1019.27 1019.34 1019.44 1019.25 1018.89 1018.74 1018.62 1018.49 1018.90 1019.43 1019.98 1020.52 1021.13 1021.67 1022.00 1022.19 1022.29 1022.35 1022.40 1022.24 1022.19 1021.94 1021.65 1021.32 1020.94 1020.55 1019.89 1019.25 1018.43 1017.86 1017.11 1015.97
1021.21 1020.41 1020.48 1020.37 1019.87 1018.85 1018.59 1018.20 1017.91 1017.97 1018.33 1018.52 1018.71 1018.66 1018.61 1018.61 1018.51 1018.44 1018.65 1018.87 1019.44 1019.99 1020.51 1020.93 1021.54 1021.82 1022.19 1022.40 1022.55 1022.49 1022.30 1022.28 1022.06 1022.03 1021.75 1021.35 1020.72 1020.15 1019.51 1018.73 1017.86 1017.13 1016.42 1015.36
1019.36 1018.68 1019.04 1019.08 1018.39 1018.02 1017.47 1017.41 1017.15 1017.18 1017.37 1017.30 1017.49 1017.67 1017.82 1018.13 1018.05 1018.33 1018.78 1019.28 1019.91 1020.42 1020.90 1021.46 1021.97 1022.26 1022.50 1022.67 1022.85 1023.04 1022.69 1022.41 1022.24 1021.80 1021.33 1020.77 1020.14 1019.39 1018.83 1018.08 1017.22 1016.23 1015.32 1014.26
1017.78 1017.61 1017.49 1017.09 1017.19 1016.73 1016.51 1016.28 1016.21 1016.35 1016.49 1016.67 1016.83 1017.04 1017.20 1017.53 1017.81 1018.34 1019.04 1019.66 1020.26 1020.80 1021.39 1021.98 1022.44 1022.68 1022.83 1022.92 1022.99 1022.98 1022.76 1022.58 1022.24 1021.67 1020.94 1020.18 1019.47 1018.69 1017.81 1017.15 1016.34 1015.25 1014.14 1013.24
1016.25 1015.76 1016.11 1015.48 1015.51 1015.68 1015.46 1015.37 1015.45 1015.95 1016.17 1016.27 1016.68 1016.93 1017.27 1017.67 1018.27 1018.92 1019.68 1020.22 1020.85 1021.43 1022.15 1022.63 1022.86 1022.94 1022.95 1022.93 1022.82 1022.65 1022.54 1022.41 1022.05 1021.21 1020.45 1019.74 1018.95 1018.05 1017.12 1016.03 1014.81 1014.03 1012.60 1011.32
Wind_Speed
5 4 6 10 11 11 4 8 12 11 10 12 13 11 12 12 13 18 14 8 15 17 16 18 18 16 16 17 16 15 13 8 6 3 2 1 2 2 1 1 3 5 5 7
3 7 12 7 7 8 8 10 12 8 7 8 10 14 18 21 14 7 7 14 15 16 17 15 14 15 16 15 15 15 14 14 7 4 3 2 1 0 2 3 2 2 4 6
10 7 10 8 8 10 11 9 9 7 7 9 8 8 9 8 9 17 19 16 18 16 14 13 14 14 13 16 16 15 15 12 10 10 5 5 4 4 5 3 1 2 3 5
7 3 1 4 7 6 8 7 3 6 5 3 8 7 5 15 14 15 13 14 12 12 12 11 12 14 14 12 11 14 15 15 13 12 7 7 3 3 3 3 2 1 3 2
2 7 6 6 6 2 6 2 3 6 6 5 8 4 6 7 11 10 10 10 9 8 8 9 9 10 11 10 11 9 11 14 15 13 12 8 8 4 3 4 6 6 3 3
10 2 3 6 6 2 5 3 8 8 4 2 1 1 5 3 11 7 9 8 8 7 8 8 8 9 10 9 8 9 10 11 10 10 10 12 9 8 6 6 5 4 1 1
5 8 5 4 2 4 3 4 5 2 1 6 7 3 5 5 5 15 14 10 8 8 7 7 8 8 8 9 9 8 9 11 10 10 11 10 9 7 8 8 6 7 5 3
4 4 1 2 2 2 6 2 4 5 3 3 7 5 6 6 11 13 12 10 8 7 6 7 6 6 7 7 8 8 10 11 10 9 8 6 7 5 4 6 6 7 7 7
3 5 4 4 3 1 2 3 1 3 1 2 6 6 2 9 9 10 10 9 8 7 7 7 7 7 7 7 8 7 8 8 10 8 7 7 6 6 6 7 6 6 7 8
3 4 2 3 2 1 1 1 3 2 4 5 6 4 8 5 11 9 8 8 7 7 6 6 6 5 4 4 4 6 7 6 6 7 6 5 6 6 6 6 7 7 6 8
5 0 2 0 5 4 0 2 2 1 4 5 9 7 8 9 8 11 7 5 4 4 5 6 6 6 6 6 5 5 5 5 5 5 4 4 5 7 8 8 7 6 5 6
5 3 5 9 7 8 5 8 8 7 7 4 11 15 11 11 8 8 4 4 6 4 4 5 6 6 6 4 2 2 2 3 1 2 2 3 5 3 3 2 4 7 8 8
3 2 2 8 3 6 5 1 1 4 1 6 9 4 6 11 10 9 11 6 5 4 5 4 5 4 2 1 1 2 1 1 1 1 4 4 3 3 4 4 4 4 5 6
3 2 6 7 8 9 5 8 8 3 6 8 15 18 22 17 9 5 5 8 6 6 4 3 3 3 4 4 5 5 5 5 5 4 4 5 5 5 5 6 6 6 6 6
1 5 4 11 11 8 5 11 18 13 16 13 24 22 23 17 8 5 5 5 2 1 4 6 4 3 4 5 5 5 6 5 5 6 7 7 7 7 6 7 7 6 6 7
2 4 4 7 5 10 14 22 17 19 19 20 20 24 15 4 4 3 3 4 1 1 2 4 6 7 7 7 6 5 6 7 6 7 7 6 7 8 10 10 9 9 9 8
6 5 2 7 1 4 8 17 19 18 19 19 19 15 1 2 3 5 5 3 4 5 3 4 6 7 6 5 3 5 6 4 5 6 8 10 9 10 11 11 11 11 12 10
5 6 3 6 5 4 11 2 2 5 9 5 5 3 5 3 2 3 3 6 6 4 5 4 4 4 2 2 3 4 5 6 6 7 8 10 10 11 14 15 16 16 13 15
13 7 3 4 7 10 18 7 2 2 9 1 3 7 7 3 5 5 3 3 2 4 4 3 2 2 4 5 4 4 4 5 6 9 10 10 9 10 13 15 17 17 17 17
2 8 6 2 5 9 3 4 5 4 7 8 5 5 4 2 2 6 3 4 7 6 3 1 4 4 6 4 4 3 5 6 9 9 10 10 10 12 15 16 16 16 16 19
3 1 11 13 9 7 3 8 4 5 11 3 7 6 5 4 7 9 8 7 6 1 5 6 6 4 3 3 2 3 5 7 8 10 12 13 12 12 14 17 16 17 18 19
8 7 6 2 2 8 2 3 7 6 3 5 5 7 5 8 9 7 9 7 4 5 5 5 3 2 2 2 3 7 8 9 10 11 12 14 14 12 12 15 15 16 16 18
3 9 6 8 7 3 6 6 7 4 6 6 7 9 10 9 8 8 7 2 4 4 3 3 3 4 2 3 3 9 11 12 12 11 12 13 14 13 13 14 15 14 14 14
6 8 4 3 8 14 17 13 12 10 9 8 8 8 7 9 8 4 3 1 2 2 2 2 3 5 6 3 6 5 10 11 11 13 13 13 13 14 13 11 11 12 12 13
10 4 9 9 10 14 16 15 15 15 16 15 12 9 11 8 5 5 4 4 2 2 3 3 3 6 7 8 8 6 9 7 11 13 13 14 12 14 14 13 12 13 15 16
15 19 12 13 16 14 15 13 10 9 9 8 7 5 4 4 4 4 3 3 3 3 2 3 4 5 8 9 10 9 6 6 10 13 12 11 12 12 13 13 13 24 31 33
Wind_Direction
195 208 208 230 239 259 319 314 302 300 303 288 280 305 314 283 268 294 294 265 90 75 59 46 36 27 27 25 28 22 15 13 61 45 96 100 166 161 165 198 191 180 175 181
134 227 239 280 329 308 292 289 286 276 300 349 321 301 283 282 268 288 43 53 77 67 53 46 43 37 28 20 28 29 28 20 20 33 17 55 76 251 147 168 186 210 175 174
213 258 332 302 293 274 270 264 293 322 340 290 302 275 259 285 67 75 70 69 61 56 49 37 31 34 47 28 23 26 27 30 28 14 14 9 24 21 25 356 66 241 173 167
253 101 173 258 259 258 291 279 355 308 343 255 41 282 332 274 89 76 70 64 58 61 59 45 34 33 29 40 38 31 29 27 22 16 24 41 45 22 4 338 258 191 170 203
213 165 184 222 230 200 232 88 250 240 231 300 249 256 246 197 121 104 87 79 75 66 65 61 45 48 35 31 28 31 35 38 23 23 23 15 19 12 350 8 26 16 353 286
258 52 231 215 225 236 5 299 261 251 216 266 49 307 322 59 145 118 109 94 88 74 61 58 55 40 32 21 30 25 33 31 32 36 29 31 26 353 4 2 2 348 312 303
192 206 237 206 239 128 112 300 308 296 126 208 63 13 234 115 129 149 131 115 93 75 55 41 33 39 38 31 19 33 23 31 20 22 29 29 26 14 10 15 5 355 340 330
239 318 102 112 245 31 183 262 166 265 311 302 8 255 247 128 84 91 101 105 98 81 72 70 56 42 48 42 35 29 25 22 19 15 18 31 20 23 10 15 21 12 357 344
278 217 166 151 71 15 102 207 13 89 31 221 231 280 10 101 104 111 111 92 82 78 69 64 55 48 38 34 36 34 40 24 18 3 360 11 11 35 22 25 22 19 2 350
36 297 24 72 115 259 209 354 41 53 236 243 253 280 263 176 151 117 92 84 78 76 71 79 81 76 55 54 53 51 70 48 25 358 354 351 4 20 22 21 17 19 351 349
103 163 250 261 178 193 252 232 193 149 213 250 273 263 69 53 93 97 88 91 120 139 155 135 120 111 85 55 40 49 57 40 39 358 331 353 9 7 13 9 359 0 348 337
177 187 236 239 301 313 261 268 270 250 257 244 253 257 112 98 100 122 153 188 180 169 109 88 75 58 65 42 10 54 45 135 128 324 343 16 34 348 352 325 326 330 332 314
114 223 267 317 280 44 76 239 214 280 248 234 269 261 137 145 162 176 211 200 190 186 122 84 78 60 70 96 37 12 343 286 248 13 4 345 349 339 293 275 264 269 289 318
58 183 183 220 262 336 297 293 271 163 272 291 269 285 290 293 315 347 196 201 179 186 111 71 38 20 352 356 355 345 343 342 339 349 331 321 316 306 300 299 300 301 307 301
10 247 219 255 272 300 290 275 272 270 258 253 272 280 276 290 318 118 117 96 73 244 202 184 209 275 286 295 307 329 317 327 340 339 330 318 316 312 306 297 297 296 291 289
90 266 35 285 259 263 266 261 267 266 264 263 264 267 285 359 121 172 163 140 130 336 303 233 213 216 226 240 253 271 293 307 333 330 315 309 313 313 313 311 306 301 294 285
168 159 136 255 69 358 301 248 246 253 259 264 268 273 14 272 103 69 49 1 294 305 307 322 286 235 221 230 255 274 275 300 310 299 299 302 305 303 302 298 296 292 296 293
195 146 158 247 56 244 248 80 337 250 259 271 281 165 184 168 7 1 277 250 254 256 258 261 277 281 109 68 349 341 344 332 304 289 283 288 291 294 298 299 295 293 295 293
218 206 243 195 206 283 301 297 309 124 278 180 206 190 189 37 322 277 245 60 322 290 278 254 302 77 53 46 22 341 317 291 288 292 291 292 294 295 297 294 293 293 296 293
224 211 192 182 203 219 232 143 95 104 271 240 172 171 132 63 14 268 319 311 282 269 270 13 56 56 56 16 18 350 305 301 299 303 310 314 313 309 304 303 301 299 294 289
116 322 213 231 244 271 236 140 141 119 265 216 167 178 201 207 210 245 267 251 250 101 77 52 42 50 34 27 8 300 307 303 311 319 310 306 308 306 299 296 294 293 291 287
156 162 215 166 226 281 157 77 169 223 160 179 199 231 243 267 264 258 260 259 131 95 61 56 40 52 23 350 357 316 311 316 315 308 307 304 302 297 294 289 288 287 287 285
256 200 194 171 203 195 204 210 225 260 223 225 226 254 271 268 256 261 259 87 82 89 73 71 36 335 360 10 1 317 319 320 315 309 300 296 294 293 290 290 289 288 283 280
232 234 215 285 245 258 265 256 255 268 262 248 249 247 254 246 246 218 154 91 53 59 48 51 22 330 318 332 324 298 312 314 310 304 301 299 297 296 290 284 284 285 284 282
210 123 230 255 250 255 264 259 262 265 266 268 267 251 248 224 215 172 161 154 162 78 43 26 333 310 311 317 312 301 306 306 303 302 301 301 298 298 297 289 286 282 277 276
226 233 236 247 251 249 263 268 245 245 239 243 256 251 224 198 174 125 134 104 90 61 23 314 304 310 307 311 307 307 300 295 298 302 305 303 299 296 294 293 290 285 289 292